�������l�o���
Date,Time,MP-1(��Sv/h),MP-2(��Sv/h),MP-3(��Sv/h),MP-4(��Sv/h),MP-5(��Sv/h),MP-6(��Sv/h),MP-7(��Sv/h),MP-8(��Sv/h),����,����(m/s),���J
2019/02/05,00:00,0.782,1.166,0.803,1.494,1.075,0.443,0.794,0.751,�k�k��,5.1,��
2019/02/05,00:10,0.782,1.164,0.802,1.496,1.070,0.443,0.796,0.752,�k�k��,5.3,��
2019/02/05,00:20,0.780,1.166,0.805,1.495,1.071,0.444,0.794,0.752,�k�k��,5.9,��
2019/02/05,00:30,0.782,1.167,0.805,1.492,1.073,0.444,0.794,0.751,�k�k��,7.9,��
2019/02/05,00:40,0.781,1.164,0.805,1.495,1.069,0.442,0.794,0.751,�k�k��,7.6,��
2019/02/05,00:50,0.779,1.164,0.803,1.496,1.070,0.442,0.795,0.751,�k�k��,7.7,��
2019/02/05,01:00,0.781,1.164,0.803,1.495,1.072,0.444,0.794,0.751,�k�k��,7.1,��
2019/02/05,01:10,0.780,1.165,0.802,1.499,1.069,0.443,0.793,0.750,�k�k��,7.5,��
2019/02/05,01:20,0.782,1.164,0.803,1.495,1.073,0.443,0.795,0.752,�k�k��,7.5,��
2019/02/05,01:30,0.782,1.161,0.801,1.495,1.072,0.444,0.793,0.751,�k�k��,7.9,��
2019/02/05,01:40,0.780,1.163,0.803,1.495,1.072,0.442,0.795,0.753,�k�k��,8.1,��
2019/02/05,01:50,0.782,1.164,0.803,1.495,1.071,0.443,0.796,0.751,�k��,8.1,��
2019/02/05,02:00,0.779,1.158,0.803,1.494,1.073,0.442,0.794,0.751,�k�k��,7.5,��
2019/02/05,02:10,0.780,1.164,0.803,1.492,1.071,0.442,0.795,0.750,�k�k��,7.9,��
2019/02/05,02:20,0.781,1.163,0.803,1.495,1.070,0.442,0.794,0.751,�k�k��,7.7,��
2019/02/05,02:30,0.779,1.165,0.802,1.498,1.070,0.443,0.795,0.751,�k�k��,7.6,��
2019/02/05,02:40,0.782,1.164,0.804,1.494,1.075,0.443,0.795,0.751,�k�k��,5.8,��
2019/02/05,02:50,0.782,1.164,0.805,1.495,1.073,0.444,0.795,0.752,�k�k��,7.1,��
2019/02/05,03:00,0.782,1.165,0.803,1.495,1.071,0.443,0.795,0.752,�k�k��,6.2,��
2019/02/05,03:10,0.781,1.164,0.804,1.497,1.072,0.444,0.792,0.752,�k�k��,7.4,��
2019/02/05,03:20,0.782,1.166,0.805,1.496,1.071,0.445,0.794,0.750,�k�k��,7.2,��
2019/02/05,03:30,0.780,1.164,0.805,1.494,1.072,0.443,0.793,0.752,�k�k��,6.2,��
2019/02/05,03:40,0.782,1.164,0.806,1.494,1.071,0.444,0.795,0.752,�k�k��,7.7,��
2019/02/05,03:50,0.784,1.164,0.805,1.495,1.072,0.444,0.793,0.753,�k�k��,6.6,��
2019/02/05,04:00,0.781,1.163,0.801,1.495,1.072,0.446,0.793,0.752,�k�k��,7.3,��
2019/02/05,04:10,0.780,1.163,0.804,1.496,1.071,0.445,0.795,0.752,�k�k��,7.3,��
2019/02/05,04:20,0.781,1.163,0.805,1.496,1.073,0.443,0.795,0.751,�k�k��,7.9,��
2019/02/05,04:30,0.780,1.164,0.805,1.497,1.070,0.444,0.795,0.752,�k�k��,7.7,��
2019/02/05,04:40,0.784,1.162,0.803,1.495,1.074,0.443,0.794,0.751,�k�k��,8.1,��
2019/02/05,04:50,0.782,1.163,0.806,1.496,1.074,0.446,0.795,0.751,�k�k��,8.2,��
2019/02/05,05:00,0.781,1.161,0.806,1.495,1.071,0.444,0.795,0.750,�k�k��,9.0,��
2019/02/05,05:10,0.784,1.164,0.804,1.495,1.072,0.444,0.795,0.751,�k�k��,9.0,��
2019/02/05,05:20,0.782,1.163,0.804,1.497,1.074,0.446,0.794,0.752,�k�k��,7.0,��
2019/02/05,05:30,0.780,1.163,0.803,1.497,1.072,0.446,0.795,0.751,�k�k��,6.8,��
2019/02/05,05:40,0.782,1.162,0.805,1.496,1.072,0.443,0.795,0.751,�k�k��,6.7,��
2019/02/05,05:50,0.781,1.166,0.804,1.496,1.072,0.443,0.795,0.750,�k,6.9,��
2019/02/05,06:00,0.781,1.164,0.805,1.497,1.072,0.444,0.795,0.750,�k�k��,8.2,��
2019/02/05,06:10,0.781,1.164,0.804,1.493,1.072,0.444,0.794,0.752,�k�k��,8.1,��
2019/02/05,06:20,0.782,1.165,0.806,1.496,1.075,0.444,0.793,0.751,�k�k��,8.6,��
2019/02/05,06:30,0.782,1.165,0.804,1.494,1.071,0.444,0.794,0.754,�k,6.7,��
2019/02/05,06:40,0.780,1.163,0.804,1.496,1.071,0.444,0.795,0.751,�k,8.0,��
2019/02/05,06:50,0.782,1.162,0.803,1.493,1.072,0.443,0.794,0.751,�k,6.9,��
2019/02/05,07:00,0.782,1.162,0.805,1.496,1.071,0.443,0.793,0.750,�k,6.9,��
2019/02/05,07:10,0.779,1.163,0.804,1.494,1.071,0.443,0.795,0.750,�k,7.2,��
2019/02/05,07:20,0.780,1.163,0.803,1.496,1.069,0.443,0.795,0.752,�k,6.2,��
2019/02/05,07:30,0.782,1.163,0.803,1.497,1.070,0.445,0.794,0.750,�k�k��,6.8,��
2019/02/05,07:40,0.780,1.162,0.802,1.494,1.072,0.443,0.794,0.751,�k�k��,6.8,��
2019/02/05,07:50,0.783,1.165,0.804,1.496,1.073,0.446,0.793,0.753,�k,6.4,��
2019/02/05,08:00,0.781,1.163,0.804,1.495,1.069,0.444,0.795,0.750,�k�k��,8.0,��
2019/02/05,08:10,0.781,1.162,0.805,1.494,1.072,0.444,0.795,0.751,�k�k��,7.2,��
2019/02/05,08:20,0.782,1.164,0.804,1.495,1.071,0.444,0.794,0.753,�k�k��,5.2,��
2019/02/05,08:30,0.783,1.159,0.802,1.497,1.073,0.444,0.795,0.751,�k,5.8,��
2019/02/05,08:40,0.781,1.160,0.804,1.497,1.070,0.445,0.794,0.751,�k�k��,5.5,��
2019/02/05,08:50,0.783,1.161,0.804,1.497,1.074,0.443,0.793,0.753,�k�k��,6.0,��
2019/02/05,09:00,0.781,1.160,0.806,1.494,1.073,0.445,0.793,0.752,�k�k��,5.3,��
2019/02/05,09:10,0.783,1.159,0.805,1.496,1.072,0.445,0.793,0.751,�k,4.7,��
2019/02/05,09:20,0.782,1.161,0.803,1.498,1.073,0.444,0.795,0.754,�k�k��,4.3,��
2019/02/05,09:30,0.786,1.162,0.804,1.494,1.072,0.444,0.794,0.752,�k��,5.5,��
2019/02/05,09:40,0.782,1.159,0.803,1.492,1.073,0.443,0.793,0.752,�k�k��,4.5,��
2019/02/05,09:50,0.782,1.161,0.805,1.492,1.071,0.445,0.792,0.752,�k�k��,3.9,��
2019/02/05,10:00,0.781,1.157,0.802,1.492,1.073,0.444,0.791,0.752,�k�k��,4.2,��
2019/02/05,10:10,0.785,1.161,0.802,1.492,1.073,0.443,0.792,0.755,�k�k��,5.4,��
2019/02/05,10:20,0.782,1.161,0.807,1.494,1.073,0.445,0.793,0.753,�k�k��,3.1,��
2019/02/05,10:30,0.783,1.162,0.805,1.495,1.072,0.445,0.792,0.754,�k�k��,4.2,��
2019/02/05,10:40,0.782,1.162,0.803,1.495,1.072,0.444,0.792,0.752,�k�k��,3.0,��
2019/02/05,10:50,0.783,1.159,0.806,1.491,1.071,0.445,0.790,0.751,�k,2.2,��
2019/02/05,11:00,0.784,1.161,0.803,1.491,1.073,0.444,0.792,0.752,�k��,3.0,��
2019/02/05,11:10,0.784,1.162,0.806,1.492,1.074,0.443,0.790,0.751,�k��,2.6,��
2019/02/05,11:20,0.783,1.160,0.806,1.493,1.074,0.446,0.790,0.753,���k��,4.0,��
2019/02/05,11:30,0.784,1.163,0.805,1.493,1.076,0.446,0.789,0.752,��,3.9,��
2019/02/05,11:40,0.784,1.159,0.805,1.497,1.073,0.446,0.790,0.752,���k��,3.3,��
2019/02/05,11:50,0.786,1.162,0.805,1.494,1.072,0.444,0.791,0.751,��,2.8,��
2019/02/05,12:00,0.785,1.165,0.805,1.494,1.074,0.445,0.792,0.752,��,2.6,��
2019/02/05,12:10,0.785,1.163,0.806,1.498,1.074,0.445,0.790,0.753,���k��,3.2,��
2019/02/05,12:20,0.786,1.165,0.805,1.498,1.074,0.444,0.792,0.752,���쓌,2.9,��
2019/02/05,12:30,0.786,1.162,0.807,1.500,1.075,0.445,0.793,0.754,���쓌,3.0,��
2019/02/05,12:40,0.787,1.161,0.805,1.498,1.076,0.445,0.793,0.754,�쓌,2.0,��
2019/02/05,12:50,0.786,1.160,0.806,1.499,1.073,0.444,0.792,0.753,�쓌,3.4,��
2019/02/05,13:00,0.787,1.160,0.806,1.497,1.074,0.445,0.794,0.753,�쓌,4.2,��
2019/02/05,13:10,0.786,1.157,0.806,1.498,1.073,0.446,0.792,0.750,�쓌,5.9,��
2019/02/05,13:20,0.787,1.161,0.805,1.498,1.074,0.446,0.794,0.752,�쓌,5.0,��
2019/02/05,13:30,0.787,1.161,0.808,1.497,1.073,0.447,0.794,0.753,�쓌,5.0,��
2019/02/05,13:40,0.787,1.162,0.806,1.501,1.073,0.446,0.793,0.751,�쓌,4.8,��
2019/02/05,13:50,0.786,1.159,0.806,1.500,1.074,0.446,0.794,0.752,���쓌,4.0,��
2019/02/05,14:00,0.785,1.159,0.805,1.495,1.075,0.447,0.792,0.751,�쓌,3.3,��
2019/02/05,14:10,0.787,1.163,0.807,1.498,1.078,0.448,0.794,0.752,���쓌,3.3,��
2019/02/05,14:20,0.787,1.160,0.806,1.500,1.077,0.447,0.794,0.750,�쓌,4.7,��
2019/02/05,14:30,0.782,1.160,0.807,1.497,1.077,0.449,0.795,0.750,��쓌,4.6,��
2019/02/05,14:40,0.786,1.162,0.808,1.498,1.076,0.446,0.797,0.748,��쓌,5.3,��
2019/02/05,14:50,0.785,1.162,0.808,1.497,1.076,0.447,0.797,0.750,��쓌,5.7,��
2019/02/05,15:00,0.785,1.164,0.805,1.498,1.076,0.446,0.795,0.751,��쓌,6.0,��
2019/02/05,15:10,0.785,1.161,0.805,1.498,1.077,0.447,0.796,0.751,��쓌,6.3,��
2019/02/05,15:20,0.786,1.163,0.806,1.498,1.076,0.448,0.797,0.754,��쓌,6.3,��
2019/02/05,15:30,0.784,1.167,0.807,1.499,1.075,0.447,0.796,0.753,��쓌,6.6,��
2019/02/05,15:40,0.783,1.167,0.807,1.498,1.074,0.448,0.795,0.753,��쓌,6.9,��
2019/02/05,15:50,0.785,1.168,0.807,1.497,1.076,0.447,0.796,0.753,��쓌,7.5,��
2019/02/05,16:00,0.785,1.169,0.808,1.501,1.076,0.447,0.797,0.753,��쓌,5.6,��
2019/02/05,16:10,0.787,1.168,0.807,1.498,1.075,0.447,0.797,0.754,��쓌,7.4,��
2019/02/05,16:20,0.784,1.170,0.807,1.497,1.075,0.447,0.795,0.752,��쓌,6.9,��
2019/02/05,16:30,0.785,1.168,0.806,1.495,1.077,0.448,0.796,0.753,��쓌,6.9,��
2019/02/05,16:40,0.786,1.169,0.807,1.497,1.078,0.447,0.796,0.753,��쓌,7.9,��
2019/02/05,16:50,0.784,1.171,0.806,1.495,1.077,0.449,0.797,0.752,��,7.1,��
2019/02/05,17:00,0.787,1.170,0.807,1.500,1.077,0.449,0.795,0.752,��,6.4,��
2019/02/05,17:10,0.785,1.171,0.807,1.493,1.076,0.449,0.796,0.755,��,7.8,��
2019/02/05,17:20,0.787,1.172,0.806,1.497,1.078,0.448,0.795,0.753,��,5.7,��
2019/02/05,17:30,0.786,1.170,0.807,1.496,1.077,0.447,0.796,0.753,��,7.1,��
2019/02/05,17:40,0.786,1.170,0.808,1.496,1.078,0.448,0.797,0.753,��,7.4,��
2019/02/05,17:50,0.786,1.170,0.807,1.497,1.077,0.448,0.795,0.752,��,8.0,��
2019/02/05,18:00,0.785,1.170,0.807,1.498,1.078,0.448,0.795,0.752,��,7.8,��
2019/02/05,18:10,0.786,1.170,0.808,1.499,1.075,0.448,0.796,0.752,��,7.1,��
2019/02/05,18:20,0.784,1.170,0.808,1.496,1.076,0.447,0.795,0.753,��,7.8,��
2019/02/05,18:30,0.787,1.172,0.807,1.494,1.077,0.448,0.795,0.754,��쐼,7.2,��
2019/02/05,18:40,0.786,1.170,0.807,1.497,1.076,0.449,0.793,0.753,��쐼,6.5,��
2019/02/05,18:50,0.785,1.171,0.807,1.493,1.074,0.448,0.794,0.751,��쐼,6.9,��
2019/02/05,19:00,0.788,1.169,0.809,1.495,1.076,0.448,0.793,0.751,��쐼,7.2,��
2019/02/05,19:10,0.785,1.169,0.809,1.498,1.075,0.447,0.794,0.752,��쐼,6.7,��
2019/02/05,19:20,0.784,1.170,0.807,1.497,1.076,0.446,0.794,0.753,��쐼,6.0,��
2019/02/05,19:30,0.786,1.169,0.807,1.496,1.076,0.446,0.796,0.753,��쐼,6.4,��
2019/02/05,19:40,0.785,1.170,0.808,1.496,1.076,0.447,0.795,0.753,��쐼,6.0,��
2019/02/05,19:50,0.785,1.169,0.808,1.496,1.077,0.448,0.793,0.752,�쐼,5.5,��
2019/02/05,20:00,0.785,1.169,0.808,1.496,1.076,0.448,0.793,0.752,�쐼,5.9,��
2019/02/05,20:10,0.785,1.169,0.808,1.495,1.077,0.447,0.795,0.752,�쐼,6.3,��
2019/02/05,20:20,0.786,1.168,0.806,1.496,1.077,0.446,0.796,0.751,�쐼,5.2,��
2019/02/05,20:30,0.785,1.170,0.808,1.494,1.075,0.448,0.796,0.752,�쐼,5.0,��
2019/02/05,20:40,0.786,1.169,0.807,1.496,1.075,0.446,0.794,0.753,�쐼,7.0,��
2019/02/05,20:50,0.785,1.169,0.806,1.496,1.077,0.446,0.795,0.752,��쐼,6.7,��
2019/02/05,21:00,0.783,1.168,0.806,1.496,1.076,0.446,0.794,0.752,�쐼,5.3,��
2019/02/05,21:10,0.786,1.170,0.805,1.497,1.076,0.447,0.795,0.752,�쐼,4.1,��
2019/02/05,21:20,0.784,1.167,0.806,1.495,1.076,0.447,0.794,0.753,��쐼,5.3,��
2019/02/05,21:30,0.785,1.167,0.806,1.495,1.074,0.448,0.793,0.752,��쐼,5.4,��
2019/02/05,21:40,0.785,1.168,0.805,1.495,1.075,0.449,0.795,0.752,��쐼,4.8,��
2019/02/05,21:50,0.784,1.166,0.807,1.496,1.076,0.447,0.794,0.752,��쐼,4.4,��
2019/02/05,22:00,0.785,1.167,0.807,1.498,1.075,0.447,0.795,0.752,��쐼,5.0,��
2019/02/05,22:10,0.785,1.168,0.806,1.496,1.074,0.446,0.794,0.752,��쐼,5.8,��
2019/02/05,22:20,0.784,1.167,0.806,1.496,1.075,0.445,0.794,0.753,��쐼,4.2,��
2019/02/05,22:30,0.783,1.168,0.806,1.496,1.076,0.446,0.794,0.751,��,4.7,��
2019/02/05,22:40,0.784,1.168,0.806,1.498,1.076,0.445,0.794,0.752,��쐼,5.4,��
2019/02/05,22:50,0.784,1.168,0.807,1.495,1.075,0.446,0.794,0.752,��쐼,4.8,��
2019/02/05,23:00,0.785,1.165,0.806,1.495,1.074,0.446,0.796,0.753,�쐼,4.2,��
2019/02/05,23:10,0.784,1.167,0.805,1.496,1.075,0.446,0.794,0.752,�쐼,4.7,��
2019/02/05,23:20,0.784,1.167,0.806,1.495,1.075,0.447,0.795,0.752,�쐼,6.8,��
2019/02/05,23:30,0.783,1.168,0.806,1.495,1.075,0.447,0.796,0.753,��쐼,8.3,��
2019/02/05,23:40,0.785,1.166,0.806,1.493,1.075,0.447,0.794,0.752,��,7.9,��
2019/02/05,23:50,0.787,1.167,0.806,1.498,1.075,0.447,0.794,0.754,��쐼,7.1,��
